Погода в Позднякове

Россия / Нижегородская область     55°37′56″N   42°14′24″E
темп.,
°C
ветер,
м/с
пор.,
м/с
влажн.,
%
обл.,
%
осадки,
мм/ч
давл.,
гПа
погр.,
м
20 июня, вс
вс2000:00+17з22875 0.0 102327
03:00+15з22920 0.0 102419
06:00+19зюз23835 0.0 1024118
09:00+24юз23642 0.0 1023495
12:00+27юз23520 0.0 10231010
15:00+28юз23470 0.0 10221194
18:00+28ю23590 0.0 1020169
21:00+21ююз37820 0.0 1021113
21 июня, пн
пн2100:00+19зюз238651 0.0 102149
03:00+18з22936 0.0 102230
06:00+21з23835 0.0 1022130
09:00+26юз236530 0.0 1022564
12:00+28юз335313 0.0 10221140
15:00+29юз234684 0.0 10211398
18:00+28ю236213 0.0 1020156
21:00+22юз348075 0.0 102163
22 июня, вт
вт2200:00+20юз228617 0.0 102231
03:00+19юз2290100 0.0 102213
06:00+22ююз1282100 0.0 102290
09:00+26ююз226535 0.0 1022523
12:00+29юз2350100 0.0 10221398
15:00+29зюз234799 0.0 10221075
18:00+29ююз226199 0.0 1021107
21:00+22ююз23720 0.0 102127
23 июня, ср
ср2300:00+20ююз22750 0.0 102221
03:00+19юз22870 0.0 102218
06:00+22з23800 0.0 1022121
09:00+27сз23610 0.0 1022543
12:00+31сз11475 0.0 10221578
15:00+32зюз22440 0.0 10211810
18:00+30юз12590 0.0 1021204
21:00+25зюз22665 0.0 102119
24 июня, чт
чт2400:00+22юз227419 0.1 102114
03:00+21сз12835 0.2 102212
06:00+23зсз12796 0.0 102188
09:00+28з226040 0.0 1021498
12:00+32зсз23458 0.0 10201514
15:00+33юз224135 0.0 10201969
18:00+31ю23565 0.0 1018197
21:00+25ююз226875 0.0 101825